loading
|

TITAN 3C TRANSTAGE DEB, 1671

Orbit data source: Space-Track

TITAN 3C TRANSTAGE DEB, 1671 is space debris in LEO originally from a launch on Fri, 15 Oct 1965 UTC launched from the Air Force Eastern Test Range (AFETR). Debris objects in space refer to the collection of defunct objects orbiting the Earth. Examples of debris include non-operational satellites, rocket bodies, and fragments generated from explosions, collisions, or faulty payload assembly.

Loading next visibility...
Loading greatness...
TITAN 3C TRANSTAGE DEB details
Identifier
1671, 1965-082AJ
Orbit
LEO
Last TLE update17 hours ago
Origin
Flag of USUSAF SSD (US)
ManufacturerUnknown
MissionSpacecraft
Bus & MotorUnknown bus, Unknown motor
MassUnknown
Launch date (UTC)
1965-10-15 (59 years ago)
Launch vehicleUnknown
Launch site
Air Force Eastern Test Range (AFETR)
Object type
Payload
Rocket body
Debris
Shape & HBRUnknown
Radar Cross SectionMedium (>0.1 m² and <1 m²)

Expand to show TLE details & history

TLE from 17 hours ago
0 TITAN 3C TRANSTAGE DEB
1 01671U 65082AJ  24276.82436338  .00003517  00000-0  81578-3 0  9992
2 01671  32.1608  82.2424 0052822  97.2235 263.4417 14.52992124 95770
Epoch: 2024-10-02T19:47Z
Definitive object data (Epoch: 2024-10-02T19:47:04.996Z)
Latitude0.00003°
Longitude133.45345°
Altitude719.025 km
Speed7.496 km/s
True Right ascension05h 28m 58s
True Declination0° 00' 00"
Sunlit
Object was in daylight at TLE epoch
Predictive object data (real-time)
Latitude-10.18001°
Longitude-34.26613°
Altitude719.849 km
Speed7.495 km/s
Apparent Right ascension18h 35m 53s
Apparent Declination-24° 11' 50"
Sunlit
Object is in daylight
Predictive observer data (real-time)
Local Sidereal Time07:01:19
Azimuth20.693° NNE
Elevation-73.396°
Doppler factor1
Orbital elements
Apogee756.959 km
Perigee681.977 km
Semi-major axis7,097.605 km
Eccentricity0.0052822
Inclination32.1608°
RAAN82.2424°
Arg. of periapsis97.2235°
True anomaly262.84083°
Mean anomaly263.4417°
Eccentric anomaly263.14122°
Mean motion3.62974 °/min
BSTAR0.00081578
Period99.18 mins
No data available

TITAN 3C TRANSTAGE DEB Visibility forecast

Observer location: 39.9160978°, -105.1181434

TITAN 3C TRANSTAGE DEB is not visible in the next 10 days
Span
Click to sort rows by Start time (UTC) header in descending order
Start Az.
Max El. time (UTC)
Max El. Az.
Max El.
End time (UTC)
End Az.